Location: Bailleul
(50.3375°N, 2.8513°E)
Time: 09:00:29
(UTC+00:00)

CARTOSAT-1 - Pass Details

Date: 19 April 2021
Orbit: 615 x 619 km, 97.8° (Epoch: 05 May)

Event Time Altitude Azimuth Distance (km) Brightness Sun altitude
Exits shadow 21:20:55 40° 190° (S) 910 4.1 -20.4°
Maximum altitude 21:22:20 67° 258° (WSW) 675 3.7 -20.5°
Drops below altitude 10° 21:26:39 10° 341° (NNW) 1,994 7.2 -20.9°
Sets 21:28:52 0° 345° (NNW) 2,904 8.2 -21.2°
